sat.trackr.live / text

‹ back to catalog

SJ-7

NORAD 28737 · 2005-024A

PAYLOAD ACTIVE UNKNOWN

§ Identity

Operator
Country
PRC
Launch date
2005-07-05
Launch site
JSC
Launch vehicle
Mass (kg)
RCS (m²)
3.07

External: N2YO · Heavens-Above · Gunter

§ Orbital elements

Epoch: 2026-09-19T19:39:30.491424Z

Period
94.57 min
Inclination
97.7233°
Eccentricity
0.0016640
Mean motion
15.22713094 rev/d
Perigee alt
486.2 km
Apogee alt
509.1 km
Semi-major
6,875.8 km
B*
2.0854e-4
RAAN
295.5228°
Arg perigee
66.0887°
Mean anomaly
294.2090°
Rev number
16,242

§ Raw data

SJ-71 28737U 05024A   26262.81910291  .00004804  00000+0  20854-3 0  99942 28737  97.7233 295.5228 0016640  66.0887 294.2090 15.22713094162420

JSON: /api/v1/satellites/28737 · /tle

For live sub-satellite position, see the globe view (requires WebGL).

§ Visibility from observer

Set your observer location to see the next 7 days of passes ≥ 10°. The values pass through the URL so the page stays shareable.

No JS? Fill the form by hand. The geolocation button needs JavaScript.

§ Radio — SatNOGS DB

ModeDescriptionDownlinkUplink
BPSK S-band telemetry 2.205 GHz

1 transmitter · refreshed weekly from db.satnogs.org